Chiang Mai, Thailand

1:13 AM ICT on January 28, 2015 (GMT +0700)
ThaiWx Station | Change Station
CLOSE
Current Station
Personal Weather Station
Location: Chiang Mai, Pa Daet
Elevation: 1007 ft
Nearby Weather Stations

Elev 1007 ft 18.77 °N, 98.97 °E | Updated 4 minutes ago

Partly Cloudy
Partly Cloudy
70.3 °F
Feels Like 74 °F
N
0.0
Wind Variable Wind from WSW
Gusts 0.0 mph

Today
High -- | Low -- °F
--% Chance of Precip.
Yesterday
High -- | Low -- °F
Precip. -- in
6:59 AM 6:15 PM
First Quarter, 56% visible
Pressure 29.98 in
Visibility 6.2 miles
Clouds Few 4000 ft
Heat Index 74 °F
Dew Point 60 °F
Humidity 69%
Rainfall 0.00 in
Snow Depth Not available.
UV 0 out of 12
Pollen Not available.
Air Quality Not available.
Flu Activity Not available.
METAR VTCC 271800Z 00000KT 9999 FEW040 18/15 Q1015 A2998 NOSIG

More Conditions Fewer Conditions

Pressure 29.98 in
Visibility 6.2 miles
Clouds Few 4000 ft
Heat Index 74 °F
Dew Point 60 °F
Humidity 69%
Rainfall 0.00 in
Snow Depth Not available.
UV 0 out of 12
Pollen Not available.
Air Quality Not available.
Flu Activity Not available.
METAR VTCC 271800Z 00000KT 9999 FEW040 18/15 Q1015 A2998 NOSIG

More Conditions Fewer Conditions

10-Day Weather Forecast

Almanac

Astronomy

Jan. 28, 2015 Rise Set
Actual Time
Civil Twilight
Nautical Twilight
Astronomical Twilight
Moon
Length of Visible Light
Length of Day
Tomorrow will be .
, % of the Moon is Illuminated

Today's Extremes

Country Highs Country Lows

Community

WunderPhotos

Upload Photos

1,790,745 photos uploaded!

WunderBlogs® & News

Nearby

Air Quality

  Air Quality AQ Index Pollutant
Not available.

Snow Depth

Station Depth Elevation

Earthquake Activity

City Distance Mag. Time & Date
Minimum magnitude displayed is 2.5.

Coastal Water Temperatures

Place Temperature

Nearby Weather Stations